Other Surface Observations
Issued by NWS

Home | Current Version | Previous Version | Text Only | Print | Product List | Glossary On
Versions: 1 2 3 4 5 6 7 8 9 10 11 12 13 14 15 16 17 18 19 20 21 22 23 24 25 26 27 28 29 30 31 32 33 34 35 36 37 38 39 40 41 42 43 44 45 46 47 48 49 50
000
SXUS52 KTAE 270818
OSOTAE
OSOTAE
North Florida/South Alabama/Southwest Georgia Weather Roundup
National Weather Service Tallahassee Florida
300 AM EST THU NOV 27 2014

Note: "fair" indicates few or no clouds below 12,000 feet with no
significant weather and/or obstructions to visibility.

!FLZ017-115-028-034-025-270900
...North Florida...

CITY           SKY/WX    TMP DP  RH WIND       PRES   REMARKS
TALLAHASSEE    CLEAR     39  34  82 CALM      30.19F
APALACHICOLA   CLEAR     53  47  79 W3        30.21F
PERRY          CLEAR     40  39  99 CALM      30.22S
CROSS CITY       N/A     38  35  89 CALM      30.23S
JACKSONVILLE   CLEAR     41  37  86 CALM      30.19F
$$

!FLZ112-006-005-002-011-270900
...Florida Panhandle...

CITY           SKY/WX    TMP DP  RH WIND       PRES   REMARKS
MARIANNA       CLEAR     53  46  77 W12       30.20R
BONIFAY        FAIR      52  44  74 W5        30.21R
PANAMA CITY NW FAIR      55  46  71 W12       30.20R
TYNDALL AFB    CLEAR     62  52  68 W16G28    30.20F
TYND DRONE APT NOT AVBL
DE FUNIAK SPR  FAIR      49  44  81 W5        30.22R
EGLIN AFB      CLEAR     56  46  70 W10       30.22R
DESTIN         CLEAR     60  46  59 VRB5      30.22R
HURLBURT       CLEAR     57  42  57 NW12      30.21R
CRESTVIEW      CLEAR     52  43  71 W9        30.23R
PENSACOLA      CLEAR     54  45  71 W9        30.23R
$$

!ALZ063-066-270900
...South Alabama...

CITY           SKY/WX    TMP DP  RH WIND       PRES   REMARKS
DOTHAN         CLEAR     47  40  76 SW7       30.22R WCI  44
OZARK CAIRNS   CLEAR     46  40  77 W3        30.19R
FT RUCKER HELI CLEAR     47  40  76 NW5       30.18R WCI  45
RUCKER HELI 3  FAIR      47  41  80 W5        30.21R WCI  44
RUCKER HELI 2  FAIR      46  40  79 W5        30.19R WCI  44
FLORALA APT    CLEAR     50  41  71 CALM      30.23R
ANDALUSIA      CLEAR     49  40  71 W3        30.21R
TROY           CLEAR     45  36  70 W3        30.19R
EUFALA         FAIR      47  36  65 CALM      30.17R
MOBILE         CLEAR     48  43  82 W3        30.27R
$$

!GAZ120>161-270900
...Southwest and South Central Georgia...

CITY           SKY/WX    TMP DP  RH WIND       PRES   REMARKS
THOMASVILLE    FAIR      46  41  81 SW6       30.18F WCI  43
BAINBRIDGE     CLEAR     52  46  82 W8        30.19R
MOODY AFB      CLEAR     47  36  65 S5        30.17S
VALDOSTA       CLEAR     41  37  86 S3        30.18F
MOULTRIE       CLEAR     46  41  81 W3        30.17F
BLAKELY        CLEAR     48  43  81 W5        30.20R
ALBANY         CLEAR     46  39  76 SW5       30.20R WCI  44
TIFTON         FAIR      46  37  70 W3        30.16S
FITZGERALD     FAIR      47  36  64 W5        30.18R
CORDELE        FAIR      48  38  67 W8        30.17R WCI  45
AMERICUS       FAIR      41  36  81 W3        30.17R
HOMERVILLE     FAIR      45  37  76 SW7       30.18S WCI  41
$$

!GMZ750-755-770-775-270900
...Coastal and Buoy Obs...

STATION/POSITION TIME  TEMP    WIND        PRES    VSBY  WAVE
                       AIR SEA DIR/SP/G                  HT/PER
                 (UTC) (F)     (DEG/KT/KT) (MB)    (MI)  (FT/S)
KEATON BEACH     0800   59     250/  7/  8 1023.3F
CEDAR KEY        0800   57     160/  2/  2 1024.5S
C TOWER          0800   65     280/ 22/ 24 1023.1F
APALACHICOLA BUO 0800   67 71  290/ 16/ 19 1023.9S         3/ 6
PANAMA CITY BUOY 0721   68 76  300/ 21/ 27 1023.9F         6/ 5
MOBILE BUOY      0743   66 70  290/ 29/ 37 1025.1F         6/ 5
ORANGE BCH AL BU 0800   63 67  290/ 25/ 29 1022.9R         7/ 6
$$



USA.gov is the U.S. government's official web portal to all federal, state and local government web resources and services.